Regional Weather Roundup
Issued by NWS Sterling, VA

Home | Current Version | Previous Version | Graphics & Text | Print | Product List | Glossary On
Versions: 1 2 3 4 5 6 7 8 9 10 11 12 13 14 15 16 17 18 19 20 21 22 23 24 25 26 27 28 29 30 31 32 33 34 35 36 37 38 39 40 41 42 43 44 45 46 47 48 49 50
000
ASUS41 KLWX 091010
RWRLWX

REGIONAL WEATHER ROUNDUP
NATIONAL WEATHER SERVICE BALTIMORE MD/WASHINGTON DC
500 AM EST TUE FEB 09 2016

Note: "FAIR" indicates few or no clouds below 12,000 feet
with no significant weather and/or obstructions to visibility.
 TC=TEMPERATURE CELSIUS

 * =Non NWS site. Station does not report precipitation (e.g. rain,
    snow, etc.), thunder, or fog.

DCZ001-MDZ009-015-VAZ040>042-051-053>054-091100-
WASHINGTON METRO

CITY           SKY/WX    TMP DP  RH WIND       PRES   REMARKS
WASHINGTON NAT LGT RAIN  37  35  92 E6        29.58S FOG
DULLES         LGT SNOW  33  32  96 CALM      29.57R FOG
ANDREWS AFB    LGT RAIN  36  34  94 E8        29.55S
FT BELVOIR     DRIZZLE   36  34  93 VRB1      29.57S FOG
QUANTICO       CLOUDY    39  36  89 E3        29.58S FOG
COLLEGE PARK*  CLOUDY    36  36 100 NE3       29.58S
LEESBURG*      LGT SNOW  34  34 100 CALM      29.57S
MANASSAS*      CLOUDY    36  36 100 N6        29.57S
GAITHERSBURG*  CLOUDY    32  28  86 CALM      29.59S

$$

MDZ006>007-011-014-091100-
BALTIMORE METRO

CITY           SKY/WX    TMP DP  RH WIND       PRES   REMARKS
BWI AIRPORT    LGT SNOW  34  33  96 E9        29.58S FOG     WCI  27
MD SCIENCE CTR   N/A     34  32  92 MISG      29.59S
MARTIN STATE   CLOUDY    34  34 100 NE6       29.61S
ANNAPOLIS      CLOUDY    37  35  92 E7        29.58S
FORT MEADE*    CLOUDY    34  32  93 E3        29.60S

$$

MDZ012-015-019>023-091100-
MARYLAND EASTERN SHORE

CITY           SKY/WX    TMP DP  RH WIND       PRES   REMARKS
OCEAN CITY     LGT RAIN  40  36  86 E9        29.57S
SALISBURY      LGT RAIN  38  36  92 NE6       29.58R
BAY BRIDGE AP* MIX PCPN  36  34  93 E6        29.59S
CAMBRIDGE*     CLOUDY    36  34  93 E5        29.58S
EASTON*        DRIZZLE   37  37 100 SE5       29.62R

$$

MDZ017>025-091100-
SOUTHERN MARYLAND

CITY           SKY/WX    TMP DP  RH WIND       PRES   REMARKS
PATUXENT RIVER CLOUDY    38  35  89 E9        29.57S FOG
ST INIGOES     LGT RAIN  38  37  97 E5        29.56S
LEONARDTOWN*   CLOUDY    36  34  93 E3        29.58S

$$

MDZ003>005-091100-
NORTH CENTRAL MARYLAND

CITY           SKY/WX    TMP DP  RH WIND       PRES   REMARKS
FREDERICK*     MIX PCPN  32  32 100 CALM      29.59S
HAGERSTOWN APT CLOUDY    34  32  92 CALM      29.53S FOG
WESTMINSTER*   LGT SNOW  32  30  93 SE6       29.54F

$$

MDZ501>502-091100-
WESTERN MARYLAND

CITY           SKY/WX    TMP DP  RH WIND       PRES   REMARKS
OAKLAND*         N/A     27  27 100 SW6       29.44S FOG
CUMBERLAND*    CLOUDY    34  34 100 CALM      29.58S VSB 1/2

$$

VAZ025>031-091100-
SHENANDOAH VALLEY

CITY           SKY/WX    TMP DP  RH WIND       PRES   REMARKS
WINCHESTER*    CLOUDY    36  34  93 CALM      29.54R
FRONT ROYAL*   CLOUDY    34  32  93 CALM      29.53S
LURAY*         DRIZZLE   32  32 100 SE3       29.53S
NEW MARKET*    CLOUDY    33  32  96 CALM      29.53R
STAUNTON*      LGT SNOW  36  34  92 CALM      29.55R
WAYNESBORO*    CLOUDY    32  26  77 CALM      29.52S

$$

WVZ021-048>050-054>055-091100-
EASTERN WEST VIRGINIA PANHANDLE

CITY           SKY/WX    TMP DP  RH WIND       PRES   REMARKS
MARTINSBURG    CLOUDY    33  32  96 CALM      29.54S FOG
PETERSBURG*    CLOUDY    33  32  96 CALM      29.54S

$$

VAZ036>039-050-091100-
CENTRAL FOOTHILLS

CITY           SKY/WX    TMP DP  RH WIND       PRES   REMARKS
CHARLOTTESVILL FOG       35  33  92 CALM      29.55R VSB 3/4
CULPEPER*      CLOUDY    34  34  99 CALM      29.57S FOG
ORANGE*        CLOUDY    36  36 100 CALM      29.57S FOG
GORDONSVILLE*  CLOUDY    35  35 100 CALM      29.55S FOG
WARRENTON*     CLOUDY    36  36 100 N3        29.55S FOG

$$

VAZ055>057-091100-
NORTH AND CENTRAL PIEDMONT

CITY           SKY/WX    TMP DP  RH WIND       PRES   REMARKS
FREDERICKSBRG* CLOUDY    37  37 100 CALM      29.56S
STAFFORD*      LGT RAIN  37  36  97 CALM      29.60S

$$

NCZ024-NYZ072-PAZ021-071-VAZ022-071-091100-
OTHER REGIONAL OBSERVATIONS

CITY           SKY/WX    TMP DP  RH WIND       PRES   REMARKS
NEW YORK CITY  CLOUDY    27  21  78 NE8       29.67F WCI  19
PHILADELPHIA   CLOUDY    32  27  81 NE10      29.64S WCI  24
PITTSBURGH     LGT SNOW  32  30  92 S3        29.51S FOG
ROANOKE        CLOUDY    32  26  78 W7        29.59R
RICHMOND       CLOUDY    37  36  96 SE3       29.56R
RALEIGH        CLOUDY    36  33  89 CALM      29.61R

$$

ANZ530>537-091100-
MARINE OBSERVATIONS

STATION/POSITION TIME  TEMP    WIND        PRES
                       AIR SEA DIR/SP/G
                 (UTC) (F)     (DEG/KT/KT) (MB)
THOMAS PT LIGHT  1000   36 39  100/ 11/ 12 1002.5R
BALT KEY BRIDGE  0900   35      60/  8/ 10 1001.9F
COVE POINT       0900   36     120/  8/ 12 1001.8F
LEWISETTA        0900   40 41  120/ 11/ 12 1000.7F
SOLOMONS ISLAND  0900   38 41   80/  9/ 12   N/A
PINEY POINT      0900          110/ 10/ 10   N/A

$$




USA.gov is the U.S. government's official web portal to all federal, state and local government web resources and services.